Location: Br�znic
(45.9167°N, 22.6500°E)
Time: 07:46:42
(UTC+00:00)

PSLV R/B - Pass Details

Date: 03 March 2021
Orbit: 566 x 599 km, 98.2° (Epoch: 10 April)

Event Time Altitude Azimuth Distance (km) Brightness Sun altitude
Rises 16:57:28 0° 17° (NNE) 2,806 7.2 -7.5°
Reaches altitude 10° 16:59:41 10° 22° (NNE) 1,897 6.3 -7.9°
Maximum altitude 17:03:43 54° 101° (E) 699 4.0 -8.6°
Drops below altitude 10° 17:07:40 10° 179° (S) 1,866 6.5 -9.3°
Sets 17:09:50 0° 184° (S) 2,755 7.4 -9.7°
